TimeCST,TemperatureF,Dew PointF,Humidity,Sea Level PressureIn,VisibilityMPH,Wind Direction,Wind SpeedMPH,Gust SpeedMPH,PrecipitationIn,Events,Conditions,WindDirDegrees,DateUTC
12:03 AM,21.2,17.6,86,30.20,3.0,NNE,6.9,-,0.00,Snow,Light Snow,30,2013-01-01 06:03:00
12:52 AM,21.9,18.0,85,30.25,8.0,NNE,5.8,-,0.00,,Overcast,30,2013-01-01 06:52:00
1:09 AM,21.2,17.6,86,30.21,9.0,NNE,6.9,-,N/A,,Overcast,30,2013-01-01 07:09:00
1:20 AM,21.2,17.6,86,30.21,8.0,NNE,6.9,-,N/A,,Overcast,30,2013-01-01 07:20:00
1:52 AM,21.9,17.1,82,30.25,7.0,NE,8.1,-,N/A,,Overcast,40,2013-01-01 07:52:00
2:52 AM,21.9,16.0,78,30.28,8.0,NE,11.5,-,0.00,,Overcast,40,2013-01-01 08:52:00
3:47 AM,21.2,15.8,80,30.23,5.0,NNE,10.4,-,0.00,Snow,Light Snow,30,2013-01-01 09:47:00
3:52 AM,21.0,16.0,81,30.27,4.0,NNE,5.8,-,0.00,Snow,Light Snow,20,2013-01-01 09:52:00
4:41 AM,21.2,15.8,80,30.22,8.0,NNE,12.7,19.6,0.00,,Overcast,30,2013-01-01 10:41:00
4:52 AM,21.0,15.1,78,30.26,10.0,NNE,10.4,-,0.00,,Overcast,30,2013-01-01 10:52:00
5:52 AM,19.9,15.1,81,30.28,10.0,NE,12.7,-,N/A,,Overcast,40,2013-01-01 11:52:00
6:02 AM,19.4,14.0,80,30.24,10.0,NE,11.5,-,N/A,,Overcast,50,2013-01-01 12:02:00
6:52 AM,17.1,10.9,77,30.32,10.0,NNE,5.8,-,N/A,,Mostly Cloudy,30,2013-01-01 12:52:00
7:52 AM,15.1,10.0,80,30.34,10.0,Calm,Calm,-,N/A,,Overcast,0,2013-01-01 13:52:00
8:52 AM,15.1,8.1,74,30.35,10.0,NNE,5.8,-,N/A,,Overcast,20,2013-01-01 14:52:00
9:52 AM,17.1,10.0,74,30.38,10.0,NNE,3.5,-,N/A,,Overcast,20,2013-01-01 15:52:00
10:52 AM,19.0,8.1,62,30.39,10.0,NNE,4.6,-,N/A,,Overcast,30,2013-01-01 16:52:00
11:52 AM,19.9,8.1,60,30.36,10.0,Calm,Calm,-,N/A,,Clear,0,2013-01-01 17:52:00
12:52 PM,24.1,7.0,48,30.35,10.0,Calm,Calm,-,N/A,,Clear,0,2013-01-01 18:52:00
1:52 PM,25.0,8.1,49,30.33,10.0,West,4.6,-,N/A,,Scattered Clouds,280,2013-01-01 19:52:00
2:52 PM,26.1,6.1,43,30.31,10.0,Variable,3.5,-,N/A,,Partly Cloudy,0,2013-01-01 20:52:00
3:52 PM,26.1,10.0,51,30.31,10.0,WNW,5.8,-,N/A,,Clear,290,2013-01-01 21:52:00
4:52 PM,23.0,10.9,60,30.31,10.0,West,5.8,-,N/A,,Clear,280,2013-01-01 22:52:00
5:52 PM,19.0,10.9,71,30.30,10.0,Calm,Calm,-,N/A,,Clear,0,2013-01-01 23:52:00
6:52 PM,15.1,9.0,77,30.32,9.0,Calm,Calm,-,N/A,,Clear,0,2013-01-02 00:52:00
7:52 PM,12.9,9.0,84,30.32,8.0,Calm,Calm,-,N/A,,Clear,0,2013-01-02 01:52:00
8:52 PM,10.9,8.1,88,30.31,6.0,Calm,Calm,-,N/A,,Clear,0,2013-01-02 02:52:00
9:52 PM,10.9,8.1,88,30.30,6.0,Calm,Calm,-,N/A,,Clear,0,2013-01-02 03:52:00
10:52 PM,12.9,9.0,84,30.31,6.0,WSW,4.6,-,N/A,,Clear,240,2013-01-02 04:52:00
11:52 PM,10.9,8.1,88,30.30,5.0,SW,5.8,-,N/A,,Clear,230,2013-01-02 05:52:00